Regional Weather Roundup
Issued by NWS Portland, ME

Home | Current Version | Previous Version | Text Only | Print | Product List | Glossary On
Versions: 1 2 3 4 5 6 7 8 9 10 11 12 13 14 15 16 17 18 19 20 21 22 23 24 25 26 27 28 29 30 31 32 33 34 35 36 37 38 39 40 41 42 43 44 45 46 47 48 49 50
441
ASUS41 KGYX 071410
RWRGYX
WEATHER ROUNDUP FOR MAINE AND NEW HAMPSHIRE
NATIONAL WEATHER SERVICE GRAY ME
900 AM EST SUN FEB 07 2016

MEZ002-005-006-010-012-015-018-020-021-024-026-027-029-071500-
MAINE

CITY           SKY/WX    TMP DP  RH WIND       PRES   REMARKS
PORTLAND       SUNNY     32  21  64 W6        30.12S
SANFORD        SUNNY     28  21  74 SW10      30.13S WCI  19
BAR HARBOR     SUNNY     34  27  75 SW7       30.09S
WISCASSET      SUNNY     33  22  63 W5        30.12S
ROCKLAND       SUNNY     32  23  69 W9        30.10F
FRYEBURG       CLOUDY    37  20  50 W6        30.09S
LEWISTONAUBURN SUNNY     30  18  59 CALM      30.09S
AUGUSTA        MOSUNNY   32  20  61 W5        30.09S
WATERVILLE     CLOUDY    30  24  78 S3        30.06R
BANGOR         PTSUNNY   31  22  69 S3        30.08R
GREENVILLE       N/A     24  18  77 VRB7      30.00R
MILLINOCKET    CLOUDY    29  17  61 W5        30.08R
HOULTON        CLOUDY    28  18  66 W9        30.00R
PRESQUE ISLE   CLOUDY    26  13  57 NW15      30.00R WCI  14
FRENCHVILLE    LGT SNOW   9   1  70 NW20G30   29.99R WCI -10
CARIBOU        MOSUNNY   21   3  45 NW15G30   29.99R WCI   8
$$

NHZ002-005-008-009-011-012-014-071500-
NEW HAMPSHIRE

CITY           SKY/WX    TMP DP  RH WIND       PRES   REMARKS
PORTSMOUTH     MOSUNNY   28  21  72 SW5       30.14R
ROCHESTER      SUNNY     30  23  75 VRB3      30.12S
NASHUA         SUNNY     32  27  80 CALM      30.16S
MANCHESTER     SUNNY     26  21  81 CALM      30.14R
CONCORD        SUNNY     26  21  81 CALM      30.13S
LACONIA        SUNNY     32  18  55 SW7       30.12R
PLYMOUTH       CLOUDY    28  24  87 CALM      30.10F
BERLIN         LGT SNOW  32  23  69 VRB7      30.05S
WHITEFIELD     CLOUDY    33  19  56 SW7       30.07S
JAFFREY        SUNNY     23  21  92 S3        30.12R
KEENE          SUNNY     19  16  86 CALM      30.15S
LEBANON        SUNNY     30  22  72 CALM      30.12R
MT WASHINGTON  SNOWSHWR   9   9 100 W75G83      N/A  VSB 0   WCI -23
$$

VTZ005-007-008-071500-
VERMONT

CITY           SKY/WX    TMP DP  RH WIND       PRES   REMARKS
ST JOHNSBURY     N/A     33  21  61 MISG      30.08S
MONTPELIER     CLOUDY    32  19  58 NW5       30.11S
BURLINGTON     CLOUDY    34  21  59 S3        30.12S
$$

MAZ007-012-024-CTZ003-RIZ002-NYZ038-NYZ072-071500-
SOUTHERN NEW ENGLAND AND NY

CITY           SKY/WX    TMP DP  RH WIND       PRES   REMARKS
BOSTON         MOSUNNY   31  22  68 SW5       30.17F
WORCESTER      SUNNY     32  19  58 W7        30.11F
NANTUCKET      SUNNY     41  30  65 W7        30.19R
PROVIDENCE     MOSUNNY   33  23  66 CALM      30.19S
HARTFORD       MOSUNNY   27  21  78 CALM      30.17S
ALBANY         SUNNY     33  21  61 S7        30.15F
NEW YORK CITY  CLOUDY    38  23  55 CALM      30.18F
$$

ANZ081-ANZ082-ANZ150-NHZ014-MEZ023>029-071500-
COASTAL MARINE OBSERVATIONS

STATION/POSITION TIME  TEMP    WIND        PRES    WAVE
                       AIR SEA DIR/SP/G            HT/PER
                 (UTC) (F)     (DEG/KT/KT) (MB)    (FT/S)
MOUNT DESERT ROC 1400   38     250/ 19/ 21 1019.5R
MATINICUS ROCK   1400          270/ 21/ 23 1019.4R
ISLE OF SHOALS   1400   34     260/  8/ 10 1020.5R
JEFFREYS LEDGE   1304      44                N/A     4/ 5
CASHES LEDGE BUO 1350   41 43  270/ 17/ 21 1019.7S   5/ 5
GEORGES BANK BUO 1350   43 44              1022.5F   4/10
$$

.............KEY..............
   WCI - WIND CHILL
   TC  - TEMPERATURE IN CELSIUS
   VSB - VISIBILITY IN MILES
   HX  - HEAT INDEX
   FAIR- INDICATES FEW OR NO CLOUDS BELOW 12,000 FT, WITH NO
         SIGNIFICANT WEATHER AND/OR OBSTRUCTIONS TO VISIBILITY.






USA.gov is the U.S. government's official web portal to all federal, state and local government web resources and services.